Volver al catálogo

ARIANE 2 R/B

ActivoHEO
NORAD 19622·ROCKET BODY·🇫🇷 France

Lanzado Oct 28, 1988 desde Guiana Space Centre

Loading…

Próximos Pases (próximas 24 horas)

TLE

ActualizadoSource: Space-Track

Época: Sep 14, 2026, 18:05 UTC

1 19622U 88098B   26257.75347549  .00000945  00000-0  52155-3 0  9998
2 19622   3.8132  98.3553 5877842 357.1454   0.6488  4.16027304429910

Sigue ARIANE 2 R/B en tiempo real con AllMySat

Download on the App Store